Climatologie pour Saint-Brevin les Pins
Jour • Résumé pour février 9, 2018 Système :  Métrique    Anglais   Mixte
« - 1 jour
+ 1 jour »
Jour Semaine Mois Année Personnalisé
  Maximum : Minimum : Moyenne :
Température sous abri : 10.7 °C 2.7 °C 6.4 °C
Point de rosée : 7.6 °C -0.6 °C 3.3 °C
Humidité : 96% 55% 82%
Vitesse du vent : 25.7km/h 0.0km/h 8.8km/h
Rafale : 38.6km/h - -
Direction - - West
Pression : 1023.2 hPa 1012.1 hPa -
Précipitations : 4.3 mm    
Historical Graphs
 
 
Tableau de données pour février 9, 2018
Heure Tempé Pt rosée Pression Vent Vitesse Rafale Humidité Taux pluie (/hr) Soleil
00:00 3.1 °C 2.0 °C 1018.2 hPa South 6.4 km/h 11.3 km/h 93% 0.0 mm 0 W/m2
00:05 3.4 °C 2.4 °C 1018.2 hPa SSW 11.3 km/h 11.3 km/h 93% 0.0 mm 0 W/m2
00:10 3.8 °C 2.6 °C 1018.2 hPa SW 6.4 km/h 11.3 km/h 92% 0.0 mm 0 W/m2
00:15 3.9 °C 2.8 °C 1018.2 hPa SSW 3.2 km/h 11.3 km/h 92% 0.0 mm 0 W/m2
00:20 4.1 °C 2.8 °C 1018.2 hPa SSW 1.6 km/h 9.7 km/h 91% 0.0 mm 0 W/m2
00:25 4.2 °C 2.8 °C 1018.2 hPa South 3.2 km/h 14.5 km/h 91% 0.0 mm 0 W/m2
00:30 4.3 °C 2.8 °C 1018.2 hPa South 4.8 km/h 14.5 km/h 90% 0.0 mm 0 W/m2
00:35 4.3 °C 2.8 °C 1017.8 hPa SSW 9.7 km/h 14.5 km/h 90% 0.0 mm 0 W/m2
00:45 4.8 °C 3.2 °C 1018.2 hPa SSW 6.4 km/h 14.5 km/h 89% 0.0 mm 0 W/m2
00:50 5.0 °C 3.2 °C 1017.8 hPa South 6.4 km/h 22.5 km/h 88% 0.0 mm 0 W/m2
00:55 5.1 °C 3.1 °C 1017.8 hPa SSW 3.2 km/h 22.5 km/h 87% 0.0 mm 0 W/m2
01:00 5.3 °C 3.3 °C 1017.8 hPa South 4.8 km/h 16.1 km/h 87% 0.0 mm 0 W/m2
01:05 5.5 °C 3.5 °C 1017.8 hPa SSW 12.9 km/h 17.7 km/h 87% 0.0 mm 0 W/m2
01:10 5.6 °C 3.5 °C 1017.5 hPa SSW 6.4 km/h 17.7 km/h 86% 0.0 mm 0 W/m2
01:15 5.7 °C 3.5 °C 1017.5 hPa SSW 6.4 km/h 24.1 km/h 86% 0.0 mm 0 W/m2
01:20 5.8 °C 3.6 °C 1017.5 hPa SW 11.3 km/h 24.1 km/h 86% 0.0 mm 0 W/m2
01:30 5.8 °C 3.5 °C 1017.5 hPa SSW 8.0 km/h 20.9 km/h 85% 0.0 mm 0 W/m2
01:35 5.9 °C 3.6 °C 1017.2 hPa South 14.5 km/h 20.9 km/h 85% 0.0 mm 0 W/m2
01:40 5.9 °C 3.6 °C 1017.2 hPa SSW 8.0 km/h 19.3 km/h 85% 0.0 mm 0 W/m2
01:45 5.9 °C 3.6 °C 1017.2 hPa South 11.3 km/h 20.9 km/h 85% 0.0 mm 0 W/m2
01:50 5.9 °C 3.6 °C 1017.2 hPa SSW 16.1 km/h 22.5 km/h 85% 0.0 mm 0 W/m2
01:55 6.0 °C 3.8 °C 1017.2 hPa SSW 11.3 km/h 22.5 km/h 86% 0.0 mm 0 W/m2
02:00 6.0 °C 3.7 °C 1017.2 hPa South 25.7 km/h 25.7 km/h 85% 0.0 mm 0 W/m2
02:05 6.1 °C 3.7 °C 1016.8 hPa SW 9.7 km/h 27.4 km/h 85% 0.0 mm 0 W/m2
02:15 6.1 °C 3.9 °C 1016.8 hPa South 11.3 km/h 19.3 km/h 86% 0.0 mm 0 W/m2
02:20 6.2 °C 4.0 °C 1016.8 hPa South 16.1 km/h 19.3 km/h 86% 0.0 mm 0 W/m2
02:25 6.2 °C 4.0 °C 1016.8 hPa South 12.9 km/h 20.9 km/h 86% 0.0 mm 0 W/m2
02:30 6.2 °C 4.1 °C 1016.5 hPa SSW 4.8 km/h 20.9 km/h 86% 0.0 mm 0 W/m2
02:35 6.3 °C 4.1 °C 1016.5 hPa SSW 9.7 km/h 19.3 km/h 86% 0.0 mm 0 W/m2
02:40 6.3 °C 4.2 °C 1016.5 hPa South 12.9 km/h 22.5 km/h 86% 0.0 mm 0 W/m2
02:45 6.4 °C 4.3 °C 1016.5 hPa South 12.9 km/h 22.5 km/h 86% 0.0 mm 0 W/m2
02:50 6.4 °C 4.3 °C 1016.1 hPa SSW 20.9 km/h 22.5 km/h 86% 0.0 mm 0 W/m2
03:00 6.4 °C 4.3 °C 1016.1 hPa SSW 14.5 km/h 24.1 km/h 86% 0.0 mm 0 W/m2
03:05 6.4 °C 4.3 °C 1015.8 hPa SSW 9.7 km/h 17.7 km/h 86% 0.0 mm 0 W/m2
03:10 6.4 °C 4.4 °C 1015.8 hPa SSW 9.7 km/h 17.7 km/h 87% 0.0 mm 0 W/m2
03:15 6.3 °C 4.3 °C 1015.8 hPa SSW 11.3 km/h 17.7 km/h 87% 0.0 mm 0 W/m2
03:20 6.4 °C 4.4 °C 1015.8 hPa SSW 8.0 km/h 14.5 km/h 87% 0.0 mm 0 W/m2
03:25 6.6 °C 4.5 °C 1015.5 hPa South 8.0 km/h 12.9 km/h 87% 0.0 mm 0 W/m2
03:30 6.7 °C 4.4 °C 1015.5 hPa SSW 9.7 km/h 16.1 km/h 85% 0.0 mm 0 W/m2
03:35 6.9 °C 4.4 °C 1015.5 hPa South 6.4 km/h 24.1 km/h 84% 0.0 mm 0 W/m2
03:45 7.1 °C 4.4 °C 1015.1 hPa SSW 6.4 km/h 20.9 km/h 83% 0.0 mm 0 W/m2
03:50 7.0 °C 4.5 °C 1015.1 hPa SSW 6.4 km/h 20.9 km/h 84% 0.0 mm 0 W/m2
03:55 6.9 °C 4.6 °C 1014.8 hPa SSW 6.4 km/h 19.3 km/h 85% 0.0 mm 0 W/m2
04:00 7.0 °C 4.6 °C 1014.8 hPa WSW 6.4 km/h 19.3 km/h 85% 0.0 mm 0 W/m2
04:05 7.1 °C 4.7 °C 1014.8 hPa SSW 11.3 km/h 17.7 km/h 85% 0.0 mm 0 W/m2
04:10 7.2 °C 4.7 °C 1014.8 hPa SSW 3.2 km/h 20.9 km/h 84% 0.0 mm 0 W/m2
04:15 7.3 °C 4.8 °C 1014.8 hPa SW 19.3 km/h 24.1 km/h 84% 0.0 mm 0 W/m2
04:20 7.3 °C 4.8 °C 1014.4 hPa SW 8.0 km/h 27.4 km/h 84% 0.0 mm 0 W/m2
04:30 7.2 °C 4.9 °C 1014.1 hPa SSW 8.0 km/h 17.7 km/h 85% 0.0 mm 0 W/m2
04:35 7.2 °C 4.8 °C 1014.1 hPa SSW 1.6 km/h 19.3 km/h 85% 0.0 mm 0 W/m2
04:40 7.1 °C 4.9 °C 1014.1 hPa SW 8.0 km/h 20.9 km/h 86% 0.0 mm 0 W/m2
04:45 7.0 °C 5.0 °C 1014.1 hPa South 8.0 km/h 20.9 km/h 87% 0.0 mm 0 W/m2
04:50 6.9 °C 5.1 °C 1013.8 hPa South 9.7 km/h 17.7 km/h 88% 0.0 mm 0 W/m2
04:55 6.9 °C 5.1 °C 1013.8 hPa SSW 4.8 km/h 25.7 km/h 88% 0.3 mm 0 W/m2
05:00 6.9 °C 5.2 °C 1013.8 hPa South 3.2 km/h 25.7 km/h 89% 0.3 mm 0 W/m2
05:05 6.9 °C 5.2 °C 1013.8 hPa SSW 11.3 km/h 22.5 km/h 89% 0.3 mm 0 W/m2
05:15 6.9 °C 5.4 °C 1013.4 hPa SW 1.6 km/h 22.5 km/h 90% 0.3 mm 0 W/m2
05:20 6.9 °C 5.4 °C 1013.4 hPa South 12.9 km/h 20.9 km/h 90% 0.3 mm 0 W/m2
05:25 6.9 °C 5.4 °C 1013.4 hPa SSW 8.0 km/h 20.9 km/h 90% 0.3 mm 0 W/m2
05:30 6.9 °C 5.6 °C 1013.4 hPa SSE 9.7 km/h 22.5 km/h 91% 0.3 mm 0 W/m2
05:35 7.0 °C 5.6 °C 1013.4 hPa South 8.0 km/h 22.5 km/h 91% 0.3 mm 0 W/m2
05:40 7.1 °C 5.7 °C 1013.4 hPa SSW 6.4 km/h 25.7 km/h 91% 0.5 mm 0 W/m2
05:45 7.1 °C 5.7 °C 1013.1 hPa SW 11.3 km/h 25.7 km/h 91% 0.5 mm 0 W/m2
05:50 7.1 °C 5.7 °C 1013.1 hPa SSW 11.3 km/h 25.7 km/h 91% 0.5 mm 0 W/m2
06:00 7.1 °C 5.9 °C 1013.1 hPa South 9.7 km/h 25.7 km/h 92% 0.5 mm 0 W/m2
06:05 7.1 °C 5.9 °C 1013.1 hPa SSW 4.8 km/h 25.7 km/h 92% 0.5 mm 0 W/m2
06:10 7.2 °C 6.1 °C 1013.1 hPa SW 9.7 km/h 27.4 km/h 93% 0.5 mm 0 W/m2
06:15 7.2 °C 6.1 °C 1012.8 hPa SSW 11.3 km/h 27.4 km/h 93% 0.5 mm 0 W/m2
06:20 7.2 °C 6.2 °C 1012.8 hPa SW 11.3 km/h 24.1 km/h 93% 0.5 mm 0 W/m2
06:25 7.2 °C 6.2 °C 1012.8 hPa SSW 11.3 km/h 32.2 km/h 93% 0.8 mm 0 W/m2
06:30 7.3 °C 6.4 °C 1012.8 hPa SSW 17.7 km/h 32.2 km/h 94% 0.8 mm 0 W/m2
06:35 7.3 °C 6.4 °C 1012.8 hPa SSW 6.4 km/h 32.2 km/h 94% 0.8 mm 0 W/m2
06:45 7.5 °C 6.6 °C 1012.4 hPa SSW 6.4 km/h 29.0 km/h 94% 0.5 mm 0 W/m2
06:50 7.6 °C 6.8 °C 1012.8 hPa South 6.4 km/h 25.7 km/h 95% 0.5 mm 0 W/m2
06:55 7.7 °C 6.9 °C 1012.8 hPa SSE 16.1 km/h 29.0 km/h 95% 1.0 mm 0 W/m2
07:00 7.7 °C 6.9 °C 1012.8 hPa SSW 4.8 km/h 29.0 km/h 95% 1.3 mm 0 W/m2
07:05 7.8 °C 7.0 °C 1012.4 hPa South 11.3 km/h 20.9 km/h 95% 1.5 mm 0 W/m2
07:10 7.8 °C 7.1 °C 1012.8 hPa SSW 11.3 km/h 33.8 km/h 95% 1.5 mm 0 W/m2
07:15 7.9 °C 7.2 °C 1012.8 hPa SW 6.4 km/h 33.8 km/h 95% 1.8 mm 0 W/m2
07:20 7.9 °C 7.2 °C 1012.8 hPa WSW 14.5 km/h 25.7 km/h 95% 2.0 mm 0 W/m2
07:30 8.1 °C 7.3 °C 1012.8 hPa West 11.3 km/h 19.3 km/h 95% 2.0 mm 0 W/m2
07:35 8.2 °C 7.6 °C 1012.8 hPa West 12.9 km/h 24.1 km/h 96% 2.3 mm 0 W/m2
07:40 8.2 °C 7.6 °C 1012.4 hPa WNW 16.1 km/h 24.1 km/h 96% 2.3 mm 0 W/m2
07:45 8.0 °C 7.2 °C 1012.1 hPa WSW 6.4 km/h 20.9 km/h 95% 2.3 mm 0 W/m2
07:50 7.9 °C 7.2 °C 1012.1 hPa Calm   16.1 km/h 95% 2.3 mm 0 W/m2
07:55 7.8 °C 7.1 °C 1012.1 hPa WSW 1.6 km/h 11.3 km/h 95% 1.8 mm 0 W/m2
08:00 7.7 °C 7.1 °C 1012.4 hPa West 1.6 km/h 8.0 km/h 96% 1.5 mm 0 W/m2
08:05 7.7 °C 6.9 °C 1012.4 hPa WNW 1.6 km/h 8.0 km/h 95% 1.3 mm 0 W/m2
08:15 7.5 °C 6.8 °C 1012.4 hPa West 6.4 km/h 11.3 km/h 95% 0.8 mm 0 W/m2
08:20 7.4 °C 6.6 °C 1012.4 hPa West 3.2 km/h 11.3 km/h 95% 0.5 mm 0 W/m2
08:25 7.3 °C 6.5 °C 1012.8 hPa WNW 3.2 km/h 9.7 km/h 95% 0.5 mm 0 W/m2
08:30 7.3 °C 6.7 °C 1012.8 hPa Calm   8.0 km/h 96% 0.5 mm 0 W/m2
08:35 7.4 °C 6.8 °C 1012.8 hPa West 3.2 km/h 8.0 km/h 96% 0.3 mm 0 W/m2
08:40 7.4 °C 6.8 °C 1012.8 hPa WNW 3.2 km/h 9.7 km/h 96% 0.0 mm 0 W/m2
08:45 7.6 °C 7.0 °C 1012.8 hPa West 1.6 km/h 9.7 km/h 96% 0.0 mm 5 W/m2
08:50 7.7 °C 7.1 °C 1013.1 hPa WNW 8.0 km/h 17.7 km/h 96% 0.0 mm 7 W/m2
09:00 7.8 °C 7.2 °C 1013.1 hPa WNW 6.4 km/h 19.3 km/h 96% 0.0 mm 9 W/m2
09:05 7.8 °C 7.2 °C 1013.1 hPa WNW 12.9 km/h 16.1 km/h 96% 0.0 mm 12 W/m2
09:10 7.8 °C 7.2 °C 1013.1 hPa WNW 4.8 km/h 20.9 km/h 96% 0.0 mm 19 W/m2
09:15 7.8 °C 7.2 °C 1013.4 hPa NW 11.3 km/h 20.9 km/h 96% 0.0 mm 7 W/m2
09:20 7.8 °C 7.2 °C 1013.4 hPa WNW 9.7 km/h 20.9 km/h 96% 0.0 mm 12 W/m2
09:25 7.8 °C 7.2 °C 1013.4 hPa NW 6.4 km/h 27.4 km/h 96% 0.3 mm 7 W/m2
09:30 7.6 °C 7.0 °C 1013.4 hPa NNW 12.9 km/h 38.6 km/h 96% 0.5 mm 19 W/m2
09:35 7.4 °C 6.8 °C 1013.8 hPa WNW 16.1 km/h 38.6 km/h 96% 0.5 mm 33 W/m2
09:40 7.3 °C 6.7 °C 1013.8 hPa NNW 20.9 km/h 29.0 km/h 96% 0.5 mm 30 W/m2
09:50 6.9 °C 6.4 °C 1014.1 hPa NW 12.9 km/h 30.6 km/h 96% 0.8 mm 42 W/m2
10:00 6.7 °C 6.1 °C 1014.4 hPa NW 3.2 km/h 27.4 km/h 96% 0.8 mm 46 W/m2
10:05 6.7 °C 6.1 °C 1014.4 hPa NNW 16.1 km/h 27.4 km/h 96% 0.8 mm 49 W/m2
10:10 6.7 °C 6.1 °C 1014.4 hPa WNW 1.6 km/h 22.5 km/h 96% 0.8 mm 40 W/m2
10:15 6.5 °C 5.9 °C 1014.4 hPa NNW 16.1 km/h 30.6 km/h 96% 0.8 mm 74 W/m2
10:20 6.4 °C 5.8 °C 1014.8 hPa NW 9.7 km/h 32.2 km/h 96% 0.8 mm 65 W/m2
10:30 6.1 °C 5.5 °C 1015.1 hPa NNW 11.3 km/h 24.1 km/h 96% 0.5 mm 83 W/m2
10:35 6.0 °C 5.4 °C 1015.1 hPa NNW 8.0 km/h 20.9 km/h 96% 0.5 mm 81 W/m2
10:40 5.9 °C 5.4 °C 1015.1 hPa NNW 8.0 km/h 20.9 km/h 96% 0.3 mm 88 W/m2
10:45 6.0 °C 5.4 °C 1015.1 hPa NNW 9.7 km/h 19.3 km/h 96% 0.0 mm 93 W/m2
10:50 5.9 °C 5.4 °C 1015.5 hPa NNW 6.4 km/h 19.3 km/h 96% 0.0 mm 93 W/m2
10:55 6.1 °C 5.5 °C 1015.5 hPa NW 8.0 km/h 19.3 km/h 96% 0.0 mm 134 W/m2
11:00 6.3 °C 5.5 °C 1015.5 hPa North 8.0 km/h 20.9 km/h 95% 0.0 mm 132 W/m2
11:05 6.2 °C 5.4 °C 1015.5 hPa NW 6.4 km/h 20.9 km/h 95% 0.0 mm 128 W/m2
11:15 6.2 °C 5.3 °C 1015.5 hPa NNW 6.4 km/h 22.5 km/h 94% 0.0 mm 149 W/m2
11:20 6.3 °C 5.4 °C 1015.8 hPa WNW 16.1 km/h 20.9 km/h 94% 0.0 mm 165 W/m2
11:25 6.4 °C 5.4 °C 1015.8 hPa North 6.4 km/h 20.9 km/h 93% 0.0 mm 158 W/m2
11:30 6.5 °C 5.3 °C 1015.8 hPa NNW 9.7 km/h 19.3 km/h 92% 0.0 mm 137 W/m2
11:35 6.3 °C 5.0 °C 1015.8 hPa NNW 1.6 km/h 16.1 km/h 91% 0.0 mm 51 W/m2
11:40 6.7 °C 5.6 °C 1015.8 hPa NW 6.4 km/h 24.1 km/h 93% 0.0 mm 399 W/m2
11:45 7.4 °C 6.0 °C 1015.8 hPa NW 3.2 km/h 24.1 km/h 91% 0.0 mm 422 W/m2
11:50 7.8 °C 6.1 °C 1016.1 hPa NW 14.5 km/h 19.3 km/h 89% 0.0 mm 192 W/m2
12:00 7.4 °C 5.2 °C 1016.1 hPa NNW 20.9 km/h 29.0 km/h 86% 0.0 mm 185 W/m2
12:05 7.8 °C 5.4 °C 1016.1 hPa NNW 6.4 km/h 30.6 km/h 85% 0.0 mm 454 W/m2
12:10 8.2 °C 5.5 °C 1016.1 hPa WNW 9.7 km/h 30.6 km/h 83% 0.0 mm 450 W/m2
12:15 8.4 °C 5.5 °C 1016.1 hPa NNE 17.7 km/h 29.0 km/h 82% 0.0 mm 490 W/m2
12:20 8.4 °C 5.3 °C 1016.5 hPa NNW 11.3 km/h 32.2 km/h 81% 0.0 mm 457 W/m2
12:25 8.8 °C 5.9 °C 1016.5 hPa NNW 9.7 km/h 32.2 km/h 82% 0.0 mm 464 W/m2
12:30 8.8 °C 5.2 °C 1016.1 hPa NW 6.4 km/h 27.4 km/h 78% 0.0 mm 461 W/m2
12:35 8.6 °C 3.8 °C 1016.5 hPa NNE 6.4 km/h 33.8 km/h 72% 0.0 mm 461 W/m2
12:45 9.1 °C 4.7 °C 1016.1 hPa NNW 12.9 km/h 35.4 km/h 74% 0.0 mm 475 W/m2
12:50 9.1 °C 4.1 °C 1016.5 hPa North 17.7 km/h 29.0 km/h 71% 0.0 mm 476 W/m2
12:55 9.2 °C 3.4 °C 1016.5 hPa NW 6.4 km/h 29.0 km/h 67% 0.0 mm 480 W/m2
13:00 9.2 °C 4.0 °C 1016.5 hPa NNW 12.9 km/h 29.0 km/h 70% 0.0 mm 478 W/m2
13:05 9.3 °C 3.3 °C 1016.5 hPa NNW 12.9 km/h 29.0 km/h 66% 0.0 mm 478 W/m2
13:10 9.5 °C 4.5 °C 1016.5 hPa NNW 16.1 km/h 25.7 km/h 71% 0.0 mm 482 W/m2
13:15 9.3 °C 2.9 °C 1016.5 hPa NW 11.3 km/h 30.6 km/h 64% 0.0 mm 483 W/m2
13:20 9.6 °C 3.7 °C 1016.5 hPa NW 14.5 km/h 35.4 km/h 67% 0.0 mm 478 W/m2
13:30 9.6 °C 3.7 °C 1016.8 hPa WNW 11.3 km/h 33.8 km/h 67% 0.0 mm 483 W/m2
13:35 9.7 °C 3.5 °C 1016.8 hPa North 12.9 km/h 33.8 km/h 65% 0.0 mm 490 W/m2
13:40 9.6 °C 2.5 °C 1016.8 hPa North 16.1 km/h 30.6 km/h 61% 0.0 mm 482 W/m2
13:45 9.6 °C 2.9 °C 1016.8 hPa NNE 14.5 km/h 30.6 km/h 63% 0.0 mm 489 W/m2
13:50 9.3 °C 2.2 °C 1016.8 hPa NNW 9.7 km/h 29.0 km/h 61% 0.0 mm 239 W/m2
13:55 9.8 °C 3.7 °C 1016.8 hPa NNW 24.1 km/h 29.0 km/h 66% 0.0 mm 524 W/m2
14:00 10.3 °C 3.8 °C 1016.8 hPa North 16.1 km/h 27.4 km/h 64% 0.0 mm 522 W/m2
14:05 10.4 °C 3.0 °C 1016.8 hPa NW 14.5 km/h 27.4 km/h 60% 0.0 mm 517 W/m2
14:15 10.6 °C 3.6 °C 1016.8 hPa NW 16.1 km/h 27.4 km/h 62% 0.0 mm 592 W/m2
14:20 10.7 °C 4.4 °C 1016.8 hPa NNW 19.3 km/h 27.4 km/h 65% 0.0 mm 561 W/m2
14:25 10.6 °C 3.1 °C 1016.8 hPa NW 16.1 km/h 29.0 km/h 60% 0.0 mm 483 W/m2
14:30 9.7 °C 1.6 °C 1016.8 hPa NW 22.5 km/h 29.0 km/h 57% 0.0 mm 461 W/m2
14:35 9.6 °C 1.0 °C 1016.8 hPa NNW 17.7 km/h 30.6 km/h 55% 0.0 mm 483 W/m2
14:40 10.1 °C 2.6 °C 1017.2 hPa NNW 9.7 km/h 32.2 km/h 60% 0.0 mm 552 W/m2
14:45 10.4 °C 3.2 °C 1017.2 hPa North 8.0 km/h 32.2 km/h 61% 0.0 mm 642 W/m2
14:50 10.2 °C 3.3 °C 1017.5 hPa NNE 12.9 km/h 33.8 km/h 62% 0.0 mm 142 W/m2
15:00 8.6 °C 3.0 °C 1017.5 hPa NNW 12.9 km/h 30.6 km/h 68% 0.3 mm 457 W/m2
15:05 8.9 °C 1.6 °C 1017.5 hPa NW 3.2 km/h 27.4 km/h 60% 0.3 mm 475 W/m2
15:10 9.1 °C 1.9 °C 1017.5 hPa NW 9.7 km/h 32.2 km/h 61% 0.3 mm 104 W/m2
15:15 7.9 °C 2.4 °C 1017.5 hPa NNW 14.5 km/h 32.2 km/h 68% 0.3 mm 81 W/m2
15:20 7.4 °C 2.1 °C 1017.5 hPa NNW 14.5 km/h 27.4 km/h 69% 0.3 mm 141 W/m2
15:25 8.3 °C 2.6 °C 1017.5 hPa NNW 8.0 km/h 27.4 km/h 67% 0.3 mm 378 W/m2
15:30 8.8 °C 1.9 °C 1017.8 hPa NW 9.7 km/h 24.1 km/h 62% 0.3 mm 355 W/m2
15:35 8.9 °C 2.4 °C 1017.5 hPa NW 4.8 km/h 24.1 km/h 64% 0.3 mm 343 W/m2
15:45 8.8 °C 1.7 °C 1017.5 hPa North 11.3 km/h 27.4 km/h 61% 0.3 mm 325 W/m2
15:50 8.9 °C 2.3 °C 1017.8 hPa NW 8.0 km/h 27.4 km/h 63% 0.3 mm 330 W/m2
15:55 8.9 °C 2.7 °C 1017.8 hPa NW 14.5 km/h 25.7 km/h 65% 0.0 mm 297 W/m2
16:00 8.8 °C 2.6 °C 1017.5 hPa NW 8.0 km/h 30.6 km/h 65% 0.0 mm 345 W/m2
16:05 8.4 °C 2.0 °C 1017.8 hPa NW 17.7 km/h 30.6 km/h 64% 0.0 mm 295 W/m2
16:10 8.8 °C 3.0 °C 1017.8 hPa NNW 12.9 km/h 27.4 km/h 67% 0.0 mm 276 W/m2
16:15 8.8 °C 2.1 °C 1017.8 hPa NW 14.5 km/h 27.4 km/h 63% 0.0 mm 258 W/m2
16:20 8.4 °C 0.1 °C 1017.8 hPa North 8.0 km/h 35.4 km/h 56% 0.0 mm 220 W/m2
16:30 8.1 °C 0.8 °C 1017.8 hPa North 22.5 km/h 29.0 km/h 60% 0.0 mm 127 W/m2
16:35 7.9 °C 0.8 °C 1017.8 hPa NNW 9.7 km/h 37.0 km/h 61% 0.0 mm 47 W/m2
16:40 7.7 °C 1.1 °C 1018.2 hPa NW 14.5 km/h 37.0 km/h 63% 0.0 mm 79 W/m2
16:45 7.7 °C 1.3 °C 1018.2 hPa North 16.1 km/h 30.6 km/h 64% 0.0 mm 105 W/m2
16:50 7.6 °C 0.7 °C 1018.2 hPa NW 14.5 km/h 29.0 km/h 62% 0.0 mm 60 W/m2
16:55 7.3 °C 1.0 °C 1018.2 hPa NNW 22.5 km/h 29.0 km/h 64% 0.0 mm 91 W/m2
17:00 7.2 °C 0.6 °C 1018.2 hPa North 11.3 km/h 27.4 km/h 63% 0.0 mm 37 W/m2
17:05 6.9 °C 0.8 °C 1018.5 hPa NW 11.3 km/h 29.0 km/h 65% 0.0 mm 46 W/m2
17:15 6.6 °C 1.1 °C 1018.5 hPa NW 9.7 km/h 27.4 km/h 68% 0.0 mm 32 W/m2
17:20 6.4 °C 0.9 °C 1018.5 hPa North 6.4 km/h 24.1 km/h 68% 0.0 mm 30 W/m2
17:25 6.3 °C 0.6 °C 1018.5 hPa NNW 11.3 km/h 25.7 km/h 67% 0.0 mm 28 W/m2
17:30 6.2 °C 0.5 °C 1018.8 hPa NNE 11.3 km/h 25.7 km/h 67% 0.0 mm 28 W/m2
17:35 6.1 °C 0.6 °C 1018.8 hPa NNW 9.7 km/h 24.1 km/h 68% 0.0 mm 26 W/m2
17:40 6.0 °C 0.7 °C 1018.8 hPa NW 6.4 km/h 20.9 km/h 69% 0.0 mm 25 W/m2
17:45 5.8 °C 0.8 °C 1018.8 hPa NW 9.7 km/h 22.5 km/h 70% 0.0 mm 23 W/m2
17:50 5.7 °C 0.7 °C 1018.8 hPa NNW 9.7 km/h 22.5 km/h 70% 0.0 mm 19 W/m2
18:00 5.3 °C 0.8 °C 1019.2 hPa NNW 6.4 km/h 16.1 km/h 73% 0.0 mm 14 W/m2
18:05 5.1 °C 0.7 °C 1019.2 hPa NNW 19.3 km/h 19.3 km/h 73% 0.0 mm 12 W/m2
18:10 5.0 °C 0.7 °C 1019.5 hPa NW 1.6 km/h 19.3 km/h 74% 0.0 mm 11 W/m2
18:15 5.0 °C 0.7 °C 1019.5 hPa North 8.0 km/h 25.7 km/h 74% 0.0 mm 7 W/m2
18:20 5.1 °C 0.6 °C 1019.5 hPa NNW 9.7 km/h 25.7 km/h 73% 0.0 mm 5 W/m2
18:25 5.1 °C 0.2 °C 1019.9 hPa NNE 6.4 km/h 22.5 km/h 71% 0.0 mm 0 W/m2
18:30 5.1 °C -0.2 °C 1019.9 hPa NNW 11.3 km/h 24.1 km/h 69% 0.0 mm 0 W/m2
18:35 5.1 °C -0.1 °C 1020.2 hPa NW 8.0 km/h 24.1 km/h 69% 0.0 mm 0 W/m2
18:45 4.8 °C -0.2 °C 1020.2 hPa NNW 6.4 km/h 19.3 km/h 70% 0.0 mm 0 W/m2
18:50 4.5 °C -0.1 °C 1020.2 hPa NNW 6.4 km/h 19.3 km/h 72% 0.0 mm 0 W/m2
18:55 4.5 °C -0.1 °C 1020.5 hPa NNW 4.8 km/h 16.1 km/h 72% 0.0 mm 0 W/m2
19:00 4.4 °C -0.2 °C 1020.5 hPa NW 9.7 km/h 16.1 km/h 72% 0.0 mm 0 W/m2
19:05 4.4 °C 0.0 °C 1020.5 hPa NW 8.0 km/h 14.5 km/h 73% 0.0 mm 0 W/m2
19:10 4.3 °C 0.0 °C 1020.5 hPa NNW 1.6 km/h 16.1 km/h 74% 0.0 mm 0 W/m2
19:15 4.2 °C 0.0 °C 1020.9 hPa NNW 8.0 km/h 16.1 km/h 74% 0.0 mm 0 W/m2
19:20 4.1 °C 0.1 °C 1020.9 hPa NNW 8.0 km/h 12.9 km/h 75% 0.0 mm 0 W/m2
19:30 3.8 °C -0.1 °C 1020.9 hPa NW 4.8 km/h 11.3 km/h 76% 0.0 mm 0 W/m2
19:35 3.6 °C 0.0 °C 1021.2 hPa NNW 4.8 km/h 12.9 km/h 77% 0.0 mm 0 W/m2
19:40 3.7 °C 0.0 °C 1021.2 hPa NW 4.8 km/h 12.9 km/h 77% 0.0 mm 0 W/m2
19:45 3.7 °C -0.1 °C 1021.2 hPa NW 3.2 km/h 11.3 km/h 76% 0.0 mm 0 W/m2
19:50 3.6 °C -0.2 °C 1021.2 hPa WNW 3.2 km/h 11.3 km/h 76% 0.0 mm 0 W/m2
19:55 3.4 °C -0.2 °C 1021.2 hPa WNW 1.6 km/h 9.7 km/h 77% 0.0 mm 0 W/m2
20:00 3.3 °C -0.3 °C 1021.2 hPa NNW 9.7 km/h 9.7 km/h 77% 0.0 mm 0 W/m2
20:05 3.2 °C -0.3 °C 1021.2 hPa NW 4.8 km/h 9.7 km/h 78% 0.0 mm 0 W/m2
20:15 2.9 °C -0.4 °C 1021.6 hPa NW 8.0 km/h 12.9 km/h 79% 0.0 mm 0 W/m2
20:20 2.8 °C -0.3 °C 1021.6 hPa NNW 3.2 km/h 12.9 km/h 80% 0.0 mm 0 W/m2
20:25 2.9 °C -0.2 °C 1021.6 hPa NNW 1.6 km/h 12.9 km/h 80% 0.0 mm 0 W/m2
20:30 3.0 °C -0.3 °C 1021.6 hPa WNW 3.2 km/h 12.9 km/h 79% 0.0 mm 0 W/m2
20:35 3.1 °C -0.2 °C 1021.6 hPa NNW 8.0 km/h 14.5 km/h 79% 0.0 mm 0 W/m2
20:40 3.3 °C -0.2 °C 1021.9 hPa WNW 6.4 km/h 14.5 km/h 78% 0.0 mm 0 W/m2
20:45 3.3 °C -0.2 °C 1021.9 hPa NW 8.0 km/h 12.9 km/h 78% 0.0 mm 0 W/m2
20:50 3.3 °C -0.2 °C 1021.9 hPa WNW 3.2 km/h 12.9 km/h 78% 0.0 mm 0 W/m2
21:00 3.1 °C -0.4 °C 1021.9 hPa WNW 3.2 km/h 11.3 km/h 78% 0.0 mm 0 W/m2
21:05 3.1 °C -0.4 °C 1021.9 hPa Calm   11.3 km/h 78% 0.0 mm 0 W/m2
21:10 2.8 °C -0.5 °C 1022.2 hPa Calm   11.3 km/h 79% 0.0 mm 0 W/m2
21:15 2.8 °C -0.5 °C 1022.2 hPa WNW 4.8 km/h 8.0 km/h 79% 0.0 mm 0 W/m2
21:20 2.8 °C -0.5 °C 1022.2 hPa WNW 6.4 km/h 9.7 km/h 79% 0.0 mm 0 W/m2
21:25 2.7 °C -0.6 °C 1022.2 hPa NW 3.2 km/h 11.3 km/h 79% 0.0 mm 0 W/m2
21:30 2.8 °C -0.3 °C 1022.6 hPa NW 1.6 km/h 11.3 km/h 80% 0.0 mm 0 W/m2
21:35 2.9 °C -0.2 °C 1022.2 hPa NW 4.8 km/h 9.7 km/h 80% 0.0 mm 0 W/m2
21:45 2.9 °C 0.0 °C 1022.6 hPa NW 3.2 km/h 11.3 km/h 81% 0.0 mm 0 W/m2
21:50 3.1 °C 0.1 °C 1022.6 hPa WNW 1.6 km/h 11.3 km/h 81% 0.0 mm 0 W/m2
21:55 3.2 °C 0.2 °C 1022.6 hPa NW 1.6 km/h 11.3 km/h 81% 0.0 mm 0 W/m2
22:00 3.1 °C 0.1 °C 1022.6 hPa NNW 1.6 km/h 11.3 km/h 81% 0.0 mm 0 W/m2
22:05 3.1 °C 0.2 °C 1022.6 hPa NW 3.2 km/h 12.9 km/h 81% 0.0 mm 0 W/m2
22:10 3.1 °C 0.1 °C 1022.6 hPa NW 3.2 km/h 12.9 km/h 81% 0.0 mm 0 W/m2
22:15 3.1 °C 0.3 °C 1022.9 hPa WNW 6.4 km/h 12.9 km/h 82% 0.0 mm 0 W/m2
22:20 3.1 °C 0.3 °C 1022.9 hPa NW 6.4 km/h 12.9 km/h 82% 0.0 mm 0 W/m2
22:30 2.9 °C 0.3 °C 1022.9 hPa WNW 1.6 km/h 11.3 km/h 83% 0.0 mm 0 W/m2
22:35 3.0 °C 0.4 °C 1022.9 hPa West 3.2 km/h 14.5 km/h 83% 0.0 mm 0 W/m2
22:40 2.9 °C 0.5 °C 1023.2 hPa NW 3.2 km/h 14.5 km/h 84% 0.0 mm 0 W/m2
22:45 3.0 °C 0.6 °C 1023.2 hPa NW 8.0 km/h 11.3 km/h 84% 0.0 mm 0 W/m2
22:50 3.1 °C 0.6 °C 1023.2 hPa WNW 6.4 km/h 12.9 km/h 84% 0.0 mm 0 W/m2
22:55 3.1 °C 0.7 °C 1023.2 hPa NW 3.2 km/h 14.5 km/h 84% 0.0 mm 0 W/m2
23:00 3.3 °C 1.0 °C 1023.2 hPa NW 1.6 km/h 14.5 km/h 85% 0.0 mm 0 W/m2
23:05 3.3 °C 0.9 °C 1022.9 hPa NW 8.0 km/h 14.5 km/h 84% 0.0 mm 0 W/m2
23:15 3.3 °C 0.9 °C 1022.9 hPa NNW 3.2 km/h 12.9 km/h 84% 0.0 mm 0 W/m2
23:20 3.2 °C 0.9 °C 1022.9 hPa NW 3.2 km/h 9.7 km/h 85% 0.0 mm 0 W/m2
23:25 3.2 °C 0.9 °C 1022.9 hPa NW 8.0 km/h 11.3 km/h 85% 0.0 mm 0 W/m2
23:30 3.2 °C 0.9 °C 1022.9 hPa WNW 4.8 km/h 11.3 km/h 85% 0.0 mm 0 W/m2
23:35 3.2 °C 1.0 °C 1022.9 hPa NW 6.4 km/h 12.9 km/h 86% 0.0 mm 0 W/m2
23:40 3.1 °C 1.0 °C 1022.9 hPa NNW 9.7 km/h 12.9 km/h 86% 0.0 mm 0 W/m2
23:45 3.1 °C 0.9 °C 1023.2 hPa WNW 3.2 km/h 12.9 km/h 86% 0.0 mm 0 W/m2
23:50 3.0 °C 1.0 °C 1023.2 hPa NW 6.4 km/h 14.5 km/h 87% 0.0 mm 0 W/m2